Location: Ingurtosu
(39.5197°N, 8.5075°E)
Time: 07:58:45
(UTC+00:00)

Daily predictions for brighter satellites

Satellite Brightness Start Highest point End
(mag) Time Altitude Azimuth Time Altitude Azimuth Time Altitude Azimuth
GPS 2-04 Rocket1 3.2 18:55:46 10° WSW 18:59:46 46° S 19:03:43 10° E
BREEZE-M DEB (TANK) 4.4 18:55:58 10° WNW 19:00:10 51° NNE 19:07:10 10° E
Cosmos 1151 Rocket 4.1 18:56:57 10° SE 19:00:35 26° E 19:04:15 10° NNE
Cosmos 1503 Rocket 4.0 18:55:31 10° SSW 19:00:40 79° ESE 19:05:54 10° NNE
SL-4 R/B 4.0 18:57:16 10° WNW 19:00:51 25° SW 19:04:36 10° S
H-2A R/B 4.4 18:58:15 10° SSW 19:02:09 24° W 19:06:08 10° NW
OBJECT-B 1.1 19:00:26 10° SSE 19:03:34 49° ENE 19:06:43 10° N
Ariane Rocket 3.6 19:00:05 10° SE 19:04:44 38° ENE 19:09:25 10° N
Okean-O 4.3 19:00:45 10° SSW 19:04:47 35° W 19:08:52 10° NNW
NOSS 3-3 (A) 3.8 19:07:18 10° SSW 19:12:55 86° ESE 19:19:17 10° NE
NOSS 3-3 (C) 3.8 19:07:25 10° SSW 19:13:02 86° ESE 19:19:23 10° NE
S3M 4.0 19:07:07 10° S 19:13:29 80° E 19:19:49 10° N
Cosmos 1437 3.8 19:11:54 10° SE 19:14:05 20° E 19:16:18 10° NE
ISS -2.2 19:13:43 10° S 19:15:56 17° SE 19:18:10 10° E
USA 290 2.4 19:13:31 10° NNW 19:16:45 72° WSW 19:19:55 10° SSE
Cosmos 2082 Rocket 4.1 19:14:16 10° NNE 19:17:26 15° NE 19:20:34 10° E
Tianhe-1 2.4 19:15:59 10° SSW 19:18:26 21° SSE 19:20:45 11° E
ERS-2 3.0 19:17:27 10° N 19:21:00 52° WNW 19:24:31 10° SSW
DELTA 2 R/B (1) 4.3 19:15:53 10° W 19:21:06 41° SSW 19:25:58 12° SE
Meteor 1-26 Rocket 4.3 19:19:10 10° S 19:24:43 60° E 19:30:08 10° NNE
Cosmos 2315 Rocket 4.3 19:19:37 10° SSE 19:25:44 52° E 19:31:54 10° NNE
COSMOS 2406 4.0 19:28:24 10° N 19:33:37 36° ENE 19:37:43 15° ESE
Resurs 01 Rocket 2.2 19:34:48 15° SE 19:38:07 41° ENE 19:42:18 10° N
Cosmos 1271 Rocket 4.4 19:37:41 16° ESE 19:38:43 18° E 19:41:25 10° NE
Cosmos 2278 Rocket 2.2 19:33:37 10° S 19:39:08 57° ESE 19:44:40 10° NNE
USA 307 4.4 19:36:56 10° NNW 19:40:39 28° NNE 19:44:01 12° E
Meteor 1-20 Rocket 4.3 19:35:31 10° NNW 19:41:04 77° W 19:46:32 10° S
CZ-2C R/B 4.4 19:38:33 10° NNE 19:42:38 32° E 19:45:41 16° SSE
Cosmos 1515 Rocket 4.2 19:41:08 15° SSE 19:44:12 35° E 19:48:11 10° NNE
Delta 2 Rocket 4.0 19:39:43 10° WSW 19:44:48 50° S 19:48:13 17° ESE
Meteor 1-14 Rocket 4.5 19:42:49 10° N 19:48:31 54° ENE 19:52:41 18° SSE
IRS-1A Rocket 4.5 19:43:28 10° S 19:49:15 79° WSW 19:55:10 10° NNW
Cosmos 1602 3.7 19:45:49 10° N 19:49:43 87° W 19:53:01 14° S
IRIS 3.8 19:47:30 10° W 19:49:48 55° SSW 19:50:38 34° SE
ATLAS 5 CENTAUR R/B 2.9 19:45:02 10° NW 19:50:49 58° WSW 19:56:55 13° SSE
Cosmos 1633 Rocket 3.0 19:48:09 10° N 19:52:34 82° E 19:56:07 16° S
SPOT 1/Viking Rocket 4.4 19:49:44 19° ESE 19:52:42 34° ENE 19:57:21 10° N
USA 308 4.1 19:50:36 10° NNW 19:54:30 33° NNE 19:57:16 17° E
Cosmos 1328 Rocket 3.6 19:53:10 10° S 19:57:35 86° W 20:02:01 10° N
USA 267 4.4 19:56:42 10° S 20:02:33 34° SW 20:08:27 10° WNW
CRYOSAT 2 4.4 20:00:40 20° SSE 20:03:56 63° E 20:08:46 10° N
Cosmos 773 Rocket 4.1 19:59:40 10° NNW 20:04:59 81° WSW 20:08:41 20° SSE
Cosmos 1812 2.6 20:02:34 21° S 20:05:00 66° E 20:08:50 10° NNE
Cosmos 1782 3.8 20:02:49 10° SSW 20:06:40 47° W 20:10:32 10° N
Cosmos 1470 Rocket 3.6 20:03:27 10° N 20:07:56 67° E 20:10:16 27° SSE
Cosmos 1666 3.4 20:04:49 10° NNE 20:08:13 33° ENE 20:08:54 31° ESE
SPOT 3 Rocket 3.5 20:04:46 21° SSE 20:08:15 79° ENE 20:13:25 10° N
ERS-1 Rocket 4.3 20:09:48 20° E 20:11:32 25° ENE 20:15:32 10° NNE
Cosmos 1538 Rocket 4.2 20:06:17 10° NNW 20:11:35 60° ENE 20:14:13 29° SE
Spot 2 Rocket 4.2 20:10:00 26° ESE 20:12:04 37° ENE 20:16:41 10° N
Cosmos 1833 Rocket 2.6 20:10:04 10° NNW 20:15:44 79° ENE 20:18:46 29° SSE
X-37B 1.9 20:18:46 10° W 20:21:32 27° SW 20:21:38 27° SSW
SWARM C 4.4 20:18:29 10° N 20:21:48 74° E 20:22:19 58° SSE
Cosmos 1933 Rocket 3.6 20:17:34 10° N 20:21:52 60° E 20:23:13 40° SE
SWARM A 4.1 20:18:35 10° N 20:21:55 77° E 20:22:29 57° SSE
ARIANE 5 R/B 3.1 20:24:04 35° ESE 20:25:05 42° ENE 20:29:10 10° N
Terra 3.3 20:24:48 21° E 20:25:46 22° ENE 20:29:23 10° NNE
SJ 16-02 1.5 20:22:21 10° SSW 20:26:46 72° WNW 20:31:12 10° NNE
OAO 3 Rocket 3.5 20:25:55 10° WSW 20:30:17 40° SSE 20:30:24 40° SSE
Meteor 1-11 Rocket 4.2 20:25:27 10° N 20:31:11 47° ENE 20:33:12 34° SE
CZ-4C R/B 3.1 20:24:09 10° NW 20:31:43 76° WSW 20:36:44 28° SSE
Meteor 1-5 Rocket 4.0 20:27:05 10° N 20:32:27 89° WSW 20:34:56 33° S
USA 305 3.0 20:29:08 10° NW 20:33:23 68° NE 20:34:26 47° ESE
CREW DRAGON DEMO-1 DEB 3.6 20:33:07 10° NW 20:35:04 42° NNW 20:35:04 42° NNW
Cosmos 1500 4.3 20:35:06 10° NNW 20:38:36 39° W 20:40:07 26° SW
GPS 2-04 Rocket1 3.3 20:35:02 10° W 20:38:41 42° SSW 20:38:41 42° SSW
USA 245 4.3 20:40:41 23° N 20:40:41 23° N 20:41:43 10° N
deb Kosmos-1763 4.1 20:36:49 10° NNW 20:40:20 64° WSW 20:40:40 60° SW
Cosmos 2297 4.0 20:40:31 40° SE 20:41:35 45° ESE 20:46:58 10° NE
Cosmos 2154 Rocket 4.3 20:38:25 10° N 20:44:35 52° E 20:46:30 39° SE
SPOT 5 3.3 20:45:02 42° ESE 20:46:13 51° ENE 20:51:21 10° N
Nadezhda 1 Rocket 4.0 20:47:34 37° SSE 20:50:07 67° E 20:56:18 10° NNE
Meteor 1-10 Rocket 4.4 20:47:29 21° SSW 20:51:14 72° W 20:56:55 10° N
Cosmos 2184 Rocket 3.9 20:45:13 10° N 20:51:27 87° E 20:53:56 39° S
ISS -2.9 20:49:10 10° WSW 20:52:27 51° NW 20:55:33 11° NE
Cosmos 2074 Rocket 4.0 20:46:12 10° N 20:52:32 88° W 20:55:13 37° S
USA 306 2.7 20:48:39 10° NW 20:52:56 85° SW 20:53:14 76° SSE
Tianhe-1 3.2 20:51:37 10° WSW 20:52:47 21° WSW 20:52:47 21° WSW
Cosmos 1898 Rocket 3.5 20:56:19 54° SSE 20:57:17 65° ESE 21:02:34 10° NNE
Cosmos 1536 3.2 20:53:52 10° N 20:57:25 50° ENE 20:57:25 50° ENE
NOSS 3-4 (A) 3.9 20:51:13 10° NNW 20:58:24 87° NE 21:01:33 41° SE
NOSS 3-4 (C) 3.9 20:51:19 10° NNW 20:58:30 86° NE 21:01:39 41° SE
Cosmos 990 Rocket 3.9 20:59:05 42° SSW 21:00:54 88° ESE 21:06:11 10° NNE
Cosmos 2082 Rocket 2.1 20:56:36 10° NNW 21:02:15 85° WSW 21:03:37 54° SSE
Iridium 4 Rocket 4.1 20:59:59 29° SSW 21:02:58 66° W 21:08:53 10° N
Cosmos 923 Rocket 3.9 20:58:56 10° NNW 21:04:13 77° ENE 21:05:05 61° SE
ATLAS 2AS CENTAUR R/B 2.9 21:04:34 10° NNW 21:11:49 64° NE 21:13:56 44° ESE
Cosmos 967 Rocket 4.3 21:09:00 25° SSW 21:12:49 88° ESE 21:19:08 10° NNE
Cosmos 2228 Rocket 3.7 21:13:17 43° WSW 21:14:16 53° W 21:18:39 10° N
Resurs 01 Rocket 4.0 21:12:21 12° SW 21:14:46 17° W 21:17:41 10° NW
Cosmos 1943 Rocket 2.1 21:15:07 63° SE 21:15:27 65° ESE 21:21:01 10° NNE
Cosmos 1610 Rocket 4.3 21:10:01 10° N 21:16:10 90° E 21:17:40 55° S
SL-24 DEB 4.1 21:17:43 79° ENE 21:17:43 79° ENE 21:22:14 10° N
Cosmos 158 Rocket 4.2 21:13:04 10° NNW 21:17:50 53° WSW 21:18:29 49° SW
USA 307 3.6 21:16:39 10° WNW 21:20:07 46° W 21:20:07 46° W
Cosmos 2181 Rocket 4.4 21:21:43 42° E 21:21:50 42° E 21:27:32 10° NNE
Cosmos 2369 Rocket 3.0 21:30:23 37° ENE 21:30:23 37° ENE 21:34:27 10° NE
Cosmos 1869 Rocket 4.1 21:27:10 10° NNW 21:31:13 52° W 21:31:13 52° W
USA 308 4.2 21:30:31 10° WNW 21:33:22 32° W 21:33:22 32° W
H-2A R/B 4.1 21:35:06 10° N 21:38:45 54° NW 21:38:45 54° NW
Cosmos 2112 Rocket 4.0 21:37:23 10° NNW 21:42:45 75° WSW 21:42:46 75° WSW
Cosmos 1461 3.5 21:43:44 62° N 21:43:44 62° N 21:47:47 10° NNE
Cosmos 2341 Rocket 3.9 21:38:08 10° N 21:44:33 79° E 21:45:14 71° SE
Cosmos 1707 Rocket 4.2 21:45:45 54° NW 21:45:45 54° NW 21:49:34 10° N
Meteor 2-9 Rocket 4.5 21:41:16 10° N 21:46:43 54° ENE 21:46:43 54° ENE
Cosmos 1867 4.5 21:51:38 37° ENE 21:51:38 37° ENE 21:55:07 10° NE
ERS-1 Rocket 3.9 21:49:47 37° WSW 21:50:05 37° W 21:54:45 10° NNW
Milstar 3 3.8 21:39:19 10° WSW 21:51:18 43° S 21:51:18 43° S
CZ-3C R/B 4.5 21:11:59 10° W 21:54:07 27° SW 21:56:45 25° SSW
Cosmos 2218 Rocket 4.1 21:48:02 10° N 21:54:17 61° E 21:54:33 61° E
Cosmos 1937 Rocket 4.0 21:54:22 48° W 21:55:02 52° WNW 22:00:05 10° N
Meteor 1-19 Rocket 4.1 21:57:48 75° NNE 21:57:48 75° NNE 22:02:46 10° N
Cosmos 44 3.9 21:57:20 10° NW 22:01:55 56° W 22:01:55 56° W
Terra 2.9 22:03:40 37° W 22:03:40 37° W 22:07:42 10° NNW
Gbstr 26 Del rocket 4.2 22:00:04 10° NW 22:07:20 65° NNE 22:08:22 57° ENE
SL-8 Rocket 3.9 22:05:03 10° N 22:11:23 83° W 22:11:37 81° SW
Meteor 2-4 Rocket 4.0 22:13:29 59° NE 22:13:29 59° NE 22:18:15 10° NNE
Cosmos 1733 Rocket 4.4 22:13:57 10° NNW 22:16:47 36° NW 22:16:47 36° NW
ISS -0.5 22:27:59 10° NW 22:29:53 14° NNW 22:31:48 10° NNE
Lacrosse 5 3.7 22:58:57 23° NE 22:58:57 23° NE 23:00:57 10° NE
Cosmos 1943 Rocket 4.4 22:56:34 13° W 22:59:40 19° NW 23:03:38 10° N
RESURS DK-1 4.5 22:55:39 10° NNW 22:57:28 25° NNW 22:57:28 25° NNW
ATLAS 2AS CENTAUR R/B 4.1 22:56:38 10° WNW 23:01:21 24° W 23:01:21 24° W
Cosmos 1934 Rocket 4.4 23:01:36 10° N 23:07:06 51° ENE 23:07:06 51° ENE
Cosmos 1821 Rocket 4.1 23:06:07 10° N 23:12:02 73° NW 23:12:02 73° NW
Cosmos 2369 Rocket 3.8 23:12:07 25° WNW 23:13:19 27° NW 23:18:04 10° N
Cosmos 1125 Rocket 4.4 23:17:31 46° NNW 23:17:31 46° NNW 23:21:37 10° N
ATLAS CENTAUR R/B 4.0 23:43:28 14° NNW 23:43:28 14° NNW 23:44:49 10° N
